Weather History for KSDY - March, 2012

Change the Weather History Date:

Sunday, March 4, 2012

  Actual Average Record
Temperature  
Mean Temperature 34 °F -  
Max Temperature 39 °F 37 °F 66 °F (1987)
Min Temperature 28 °F 12 °F -25 °F (1960)
Degree Days  
Heating Degree Days 32    
Moisture  
Dew Point 26 °F    
Average Humidity 69    
Maximum Humidity 93    
Minimum Humidity 49    
Precipitation  
Precipitation 0.01 in - - ()
Sea Level Pressure  
Sea Level Pressure 29.96 in    
Wind  
Wind Speed 14 mph (WNW)    
Max Wind Speed 25 mph    
Max Gust Speed 34 mph    
Visibility 10 miles    
Events      
Averages and records for this station are not official NWS values.
T = Trace of Precipitation, MM = Missing Value Source: NWS Daily Summary

Daily Weather History Graph

Daily Weather History Graph

Search for Another Location

Airport or City:

Trip Planner

Search our weather history database for the weather conditions in past years. The results will help you decide how hot, cold, wet, or windy it might be!

Date:

Astronomy

Mar. 04, 2012 Rise Set
Actual Time 6:30 AM MST 5:46 PM MST
Civil Twilight 5:59 AM MST 6:17 PM MST
Nautical Twilight 5:24 AM MST 6:53 PM MST
Astronomical Twilight 4:48 AM MST 7:29 PM MST
Moon 1:48 PM MST (3/4) 4:07 AM MST (3/4)
Length of Visible Light 12h 18m
Length of Day
11h 16m
Waxing Gibbous, 84% of the Moon is Illuminated
Mar 4
Waxing Gibbous
Mar 8
Full
Mar 14
Last Quarter
Mar 22
New
Mar 30
First Quarter

Hourly Weather History & Observations

Time (MST) Temp. Windchill Dew Point Humidity Pressure Visibility Wind Dir Wind Speed Gust Speed Precip Events Conditions
12:15 AM 33.8 °F 25.8 °F 32.0 °F 93% 29.73 in 10.0 mi WSW 10.4 mph - N/A   Overcast
12:35 AM 37.4 °F 28.5 °F 33.8 °F 87% 29.74 in 10.0 mi WNW 15.0 mph 21.9 mph N/A   Mostly Cloudy
12:55 AM 37.4 °F 28.2 °F 33.8 °F 87% 29.73 in 10.0 mi WNW 16.1 mph 20.7 mph N/A   Mostly Cloudy
1:15 AM 37.4 °F 27.8 °F 33.8 °F 87% 29.73 in 10.0 mi West 17.3 mph - N/A   Overcast
1:35 AM 37.4 °F 28.2 °F 33.8 °F 87% 29.74 in 10.0 mi WNW 16.1 mph - N/A   Overcast
1:55 AM 37.4 °F 28.2 °F 32.0 °F 81% 29.75 in 10.0 mi NW 16.1 mph - N/A   Overcast
2:15 AM 37.4 °F 28.2 °F 30.2 °F 75% 29.76 in 10.0 mi NW 16.1 mph - N/A   Overcast
2:55 AM 37.4 °F 28.2 °F 30.2 °F 75% 29.79 in 10.0 mi WNW 16.1 mph 23.0 mph N/A   Overcast
3:15 AM 35.6 °F 25.5 °F 30.2 °F 81% 29.81 in 10.0 mi NW 17.3 mph 21.9 mph N/A   Overcast
3:35 AM 37.4 °F 26.6 °F 30.2 °F 75% 29.83 in 10.0 mi NW 21.9 mph 27.6 mph N/A   Overcast
3:55 AM 35.6 °F 27.1 °F 28.4 °F 75% 29.84 in 10.0 mi NW 12.7 mph 19.6 mph N/A   Overcast
4:15 AM 35.6 °F 25.2 °F 30.2 °F 81% 29.86 in 10.0 mi NW 18.4 mph 21.9 mph N/A   Overcast
4:35 AM 35.6 °F 24.8 °F 28.4 °F 75% 29.88 in 10.0 mi NW 19.6 mph 25.3 mph N/A   Overcast
4:55 AM 35.6 °F 26.6 °F 28.4 °F 75% 29.90 in 10.0 mi NW 13.8 mph 24.2 mph N/A   Overcast
5:15 AM 35.6 °F 25.2 °F 28.4 °F 75% 29.91 in 10.0 mi NW 18.4 mph 21.9 mph N/A   Overcast
5:36 AM 35.6 °F 25.9 °F 28.4 °F 75% 29.93 in 10.0 mi NW 16.1 mph 21.9 mph N/A   Overcast
5:55 AM 33.8 °F 23.2 °F 28.4 °F 81% 29.94 in 10.0 mi NW 17.3 mph 21.9 mph N/A   Overcast
6:15 AM 33.8 °F 22.5 °F 26.6 °F 75% 29.94 in 10.0 mi NW 19.6 mph 27.6 mph N/A   Overcast
6:35 AM 33.8 °F 24.8 °F 26.6 °F 75% 29.96 in 10.0 mi NW 12.7 mph 21.9 mph N/A   Overcast
6:55 AM 33.8 °F 23.9 °F 28.4 °F 81% 29.96 in 10.0 mi WNW 15.0 mph 21.9 mph N/A   Overcast
7:36 AM 33.8 °F 24.8 °F 28.4 °F 81% 29.99 in 10.0 mi WNW 12.7 mph - N/A   Overcast
7:55 AM 35.6 °F 25.9 °F 26.6 °F 70% 30.00 in 10.0 mi WNW 16.1 mph 19.6 mph N/A   Mostly Cloudy
8:15 AM 35.6 °F 27.1 °F 28.4 °F 75% 30.00 in 10.0 mi WNW 12.7 mph - N/A   Overcast
8:35 AM 35.6 °F 24.0 °F 28.4 °F 75% 30.00 in 10.0 mi WNW 23.0 mph - N/A   Overcast
8:55 AM 35.6 °F 24.5 °F 26.6 °F 70% 30.02 in 10.0 mi NW 20.7 mph 28.8 mph N/A   Overcast
9:15 AM 35.6 °F 23.4 °F 26.6 °F 70% 30.02 in 10.0 mi NW 25.3 mph 34.5 mph 0.01 in   Overcast
9:35 AM 35.6 °F 23.4 °F 24.8 °F 65% 30.03 in 10.0 mi NW 25.3 mph 31.1 mph 0.01 in   Mostly Cloudy
9:55 AM 35.6 °F 24.0 °F 24.8 °F 65% 30.05 in 10.0 mi NW 23.0 mph 29.9 mph 0.01 in   Overcast
10:15 AM 35.6 °F 24.8 °F 24.8 °F 65% 30.05 in 10.0 mi NW 19.6 mph 31.1 mph N/A   Overcast
10:35 AM 35.6 °F 24.2 °F 24.8 °F 65% 30.07 in 10.0 mi NW 21.9 mph - N/A   Mostly Cloudy
10:55 AM 35.6 °F 25.5 °F 24.8 °F 65% 30.07 in 10.0 mi NW 17.3 mph 23.0 mph N/A   Overcast
11:15 AM 37.4 °F 27.8 °F 26.6 °F 65% 30.07 in 10.0 mi NW 17.3 mph 24.2 mph N/A   Overcast
11:35 AM 37.4 °F 28.2 °F 24.8 °F 60% 30.08 in 10.0 mi NW 16.1 mph 21.9 mph N/A   Overcast
11:55 AM 37.4 °F 27.5 °F 24.8 °F 60% 30.08 in 10.0 mi NW 18.4 mph 25.3 mph N/A   Overcast
12:15 PM 37.4 °F 27.8 °F 23.0 °F 56% 30.08 in 10.0 mi NW 17.3 mph 23.0 mph N/A   Overcast
12:35 PM 37.4 °F 27.8 °F 24.8 °F 60% 30.08 in 10.0 mi NW 17.3 mph 21.9 mph N/A   Overcast
12:55 PM 37.4 °F 28.9 °F 24.8 °F 60% 30.08 in 10.0 mi NW 13.8 mph - N/A   Overcast
1:15 PM 37.4 °F 28.9 °F 21.2 °F 52% 30.07 in 10.0 mi NW 13.8 mph - N/A   Overcast
1:35 PM 37.4 °F 30.3 °F 21.2 °F 52% 30.08 in 10.0 mi WNW 10.4 mph - N/A   Overcast
1:55 PM 37.4 °F 30.8 °F 21.2 °F 52% 30.07 in 10.0 mi WNW 9.2 mph - N/A   Overcast
2:15 PM 39.2 °F 31.6 °F 21.2 °F 49% 30.06 in 10.0 mi WNW 12.7 mph 17.3 mph N/A   Overcast
2:35 PM 39.2 °F 33.0 °F 21.2 °F 49% 30.06 in 10.0 mi West 9.2 mph - N/A   Overcast
2:55 PM 39.2 °F 34.2 °F 21.2 °F 49% 30.05 in 10.0 mi WNW 6.9 mph - N/A   Overcast
3:15 PM 39.2 °F 35.9 °F 21.2 °F 49% 30.05 in 10.0 mi West 4.6 mph - N/A   Overcast
3:35 PM 39.2 °F 34.2 °F 21.2 °F 49% 30.05 in 10.0 mi West 6.9 mph - N/A   Overcast
3:55 PM 39.2 °F 34.2 °F 21.2 °F 49% 30.05 in 10.0 mi West 6.9 mph - N/A   Overcast
4:15 PM 39.2 °F 33.6 °F 24.8 °F 56% 30.05 in 10.0 mi West 8.1 mph - N/A   Overcast
4:55 PM 39.2 °F 34.2 °F 23.0 °F 52% 30.03 in 10.0 mi SW 6.9 mph - N/A   Overcast
5:15 PM 37.4 °F 33.8 °F 24.8 °F 60% 30.02 in 10.0 mi WSW 4.6 mph - N/A   Overcast
5:35 PM 37.4 °F - 23.0 °F 56% 30.01 in 10.0 mi Calm Calm - N/A   Overcast
5:55 PM 33.8 °F 28.6 °F 23.0 °F 65% 30.00 in 10.0 mi SSW 5.8 mph - N/A   Overcast
6:15 PM 32.0 °F 26.4 °F 24.8 °F 75% 29.99 in 10.0 mi SW 5.8 mph - N/A   Scattered Clouds
6:35 PM 30.2 °F 25.4 °F 24.8 °F 80% 29.99 in 10.0 mi SSW 4.6 mph - N/A   Clear
6:55 PM 28.4 °F 21.2 °F 21.2 °F 74% 29.98 in 10.0 mi SSW 6.9 mph - N/A   Clear
7:15 PM 28.4 °F - 24.8 °F 86% 29.97 in 10.0 mi Calm Calm - N/A   Clear
7:35 PM 28.4 °F - 23.0 °F 80% 29.96 in 10.0 mi Calm Calm - N/A   Clear
7:55 PM 26.6 °F 21.2 °F 21.2 °F 80% 29.95 in 10.0 mi South 4.6 mph - N/A   Clear
8:55 PM 26.6 °F 21.2 °F 23.0 °F 86% 29.91 in 10.0 mi South 4.6 mph - N/A   Clear
9:15 PM 26.6 °F 22.6 °F 23.0 °F 86% 29.91 in 10.0 mi South 3.5 mph - N/A   Mostly Cloudy
9:35 PM 28.4 °F - 24.8 °F 86% 29.89 in 10.0 mi Calm Calm - N/A   Overcast
10:15 PM 28.4 °F - 24.8 °F 86% 29.87 in 10.0 mi Calm Calm - N/A   Overcast
10:35 PM 28.4 °F 24.6 °F 26.6 °F 93% 29.86 in 10.0 mi SSW 3.5 mph - N/A   Overcast
10:55 PM 30.2 °F 26.7 °F 26.6 °F 86% 29.84 in 10.0 mi SE 3.5 mph - N/A   Overcast
11:15 PM 30.2 °F 23.4 °F 26.6 °F 86% 29.82 in 10.0 mi SSE 6.9 mph - N/A   Overcast
11:35 PM 32.0 °F 24.8 °F 26.6 °F 80% 29.80 in 10.0 mi South 8.1 mph - N/A   Overcast
11:55 PM 30.2 °F 26.7 °F 26.6 °F 86% 29.79 in 10.0 mi SSW 3.5 mph - N/A   Overcast